Bradford, PA

1:20 PM EDT on October 20, 2019 (GMT -0400)
Bradford Regional

Weather History for KBFD - August, 2019

Change the Weather History Date:

Wednesday, August 21, 2019

  Actual Average Record
Temperature  
Mean Temperature 73 °F 64 °F  
Max Temperature 79 °F 75 °F 86 °F (1959)
Min Temperature 66 °F 52 °F 34 °F (1984)
Degree Days  
Heating Degree Days 0 1  
Month to date heating degree days 11 13  
Since 1 June heating degree days 145 222  
Since 1 July heating degree days 23 77  
Cooling Degree Days 8 2  
Month to date cooling degree days 63 42  
Year to date cooling degree days 253 166  
Since 1 June cooling degree days 246 156  
Growing Degree Days 22 (Base 50)    
Moisture  
Dew Point 67 °F    
Average Humidity 84    
Maximum Humidity 100    
Minimum Humidity 67    
Precipitation  
Precipitation 0.54 in 0.15 in 2.33 in (2018)
Month to date precipitation 4.20 2.83  
Year to date precipitation 32.17 28.67  
Sea Level Pressure  
Sea Level Pressure 29.95 in    
Wind  
Wind Speed 5 mph (WSW)    
Max Wind Speed 15 mph    
Max Gust Speed 22 mph    
Visibility 7 miles    
Events Fog , Rain , Thunderstorm    
T = Trace of Precipitation, MM = Missing Value Source: NWS Daily Summary

Daily Weather History Graph

Daily Weather History Graph

Search for Another Location

Airport or City:

Astronomy

Aug. 21, 2019 Rise Set
Actual Time 6:28 AM EDT 8:05 PM EDT
Civil Twilight 5:59 AM EDT 8:35 PM EDT
Nautical Twilight 5:23 AM EDT 9:10 PM EDT
Astronomical Twilight 4:45 AM EDT 9:48 PM EDT
Moon 11:17 PM EDT (8/21) 12:07 PM EDT (8/21)
Length of Visible Light 14h 35m
Length of Day
13h 37m
Waning Gibbous, 69% of the Moon is Illuminated
Aug 21
Waning Gibbous
Aug 23
Last Quarter
Aug 30
New
Sep 5
First Quarter
Sep 14
Full

Hourly Weather History & Observations

Time (EDT) Temp. Dew Point Humidity Pressure Visibility Wind Dir Wind Speed Gust Speed Precip Events Conditions
12:53 AM 70.0 °F 68.0 °F 93% 29.99 in 10.0 mi SSE 3.5 mph - N/A   Clear
1:53 AM 71.1 °F 68.0 °F 90% 29.97 in 10.0 mi SSE 4.6 mph - 0.00 in Rain Light Rain
2:53 AM 71.1 °F 68.0 °F 90% 29.94 in 10.0 mi South 4.6 mph - 0.00 in   Scattered Clouds
3:53 AM 69.1 °F 64.0 °F 84% 29.95 in 10.0 mi South 5.8 mph - N/A   Scattered Clouds
4:26 AM 66.9 °F 64.9 °F 93% 30.01 in 1.8 mi SW 9.2 mph 21.9 mph 0.13 in Rain Heavy Rain
4:39 AM 66.9 °F 66.0 °F 97% 30.00 in 3.0 mi WSW 4.6 mph - 0.21 in Rain , Thunderstorm Light Rain
4:53 AM 66.9 °F 66.0 °F 97% 29.94 in 10.0 mi WSW 3.5 mph - 0.21 in Rain Light Rain
5:40 AM 66.9 °F 66.0 °F 97% 29.99 in 10.0 mi West 5.8 mph - 0.01 in   Overcast
5:53 AM 66.9 °F 66.0 °F 97% 29.94 in 10.0 mi West 6.9 mph - 0.01 in Rain Light Rain
6:53 AM 66.9 °F 66.0 °F 97% 29.93 in 4.0 mi SW 4.6 mph - 0.03 in Rain Light Rain
7:06 AM 66.9 °F 66.0 °F 97% 29.98 in 10.0 mi West 3.5 mph - 0.00 in   Mostly Cloudy
7:29 AM 66.9 °F 66.0 °F 97% 29.99 in 10.0 mi WSW 9.2 mph - 0.01 in Rain Light Rain
7:53 AM 66.9 °F 66.0 °F 97% 29.93 in 9.0 mi WSW 4.6 mph - 0.01 in Rain Light Rain
8:53 AM 68.0 °F 66.0 °F 93% 29.94 in 10.0 mi Variable 4.6 mph - 0.03 in   Scattered Clouds
9:19 AM 68.0 °F 66.0 °F 93% 29.97 in 10.0 mi Variable 5.8 mph - N/A   Mostly Cloudy
9:53 AM 70.0 °F 66.0 °F 87% 29.94 in 10.0 mi SW 4.6 mph - N/A   Mostly Cloudy
10:01 AM 70.0 °F 66.9 °F 90% 29.98 in 10.0 mi WSW 5.8 mph - N/A   Mostly Cloudy
10:53 AM 71.1 °F 66.0 °F 84% 29.94 in 10.0 mi WSW 6.9 mph - N/A   Overcast
11:53 AM 73.0 °F 66.0 °F 79% 29.93 in 10.0 mi WSW 6.9 mph - N/A   Overcast
12:53 PM 75.0 °F 66.9 °F 76% 29.94 in 10.0 mi WSW 9.2 mph - N/A   Overcast
1:38 PM 77.0 °F 66.9 °F 71% 29.97 in 10.0 mi West 5.8 mph - N/A   Mostly Cloudy
1:53 PM 78.1 °F 66.9 °F 68% 29.92 in 10.0 mi West 8.1 mph - N/A   Mostly Cloudy
2:01 PM 77.0 °F 66.0 °F 69% 29.98 in 10.0 mi West 8.1 mph - N/A   Mostly Cloudy
2:14 PM 78.1 °F 68.0 °F 71% 29.97 in 10.0 mi Variable 4.6 mph - N/A   Mostly Cloudy
2:53 PM 77.0 °F 66.0 °F 69% 29.92 in 10.0 mi West 9.2 mph - N/A   Mostly Cloudy
3:53 PM 77.0 °F 66.0 °F 69% 29.90 in 10.0 mi Variable 4.6 mph - 0.00 in   Mostly Cloudy
4:15 PM 71.1 °F 68.0 °F 90% 29.96 in 1.8 mi West 12.7 mph - 0.06 in Rain Heavy Rain
4:53 PM 75.0 °F 68.0 °F 79% 29.90 in 10.0 mi WSW 4.6 mph - 0.12 in   Mostly Cloudy
5:53 PM 77.0 °F 69.1 °F 76% 29.89 in 10.0 mi Variable 4.6 mph - N/A   Clear
6:53 PM 71.1 °F 69.1 °F 93% 29.91 in 7.0 mi NW 6.9 mph - 0.01 in Rain Light Rain
6:59 PM 71.1 °F 69.1 °F 93% 29.96 in 1.8 mi WNW 5.8 mph - 0.04 in Rain Heavy Rain
7:13 PM 71.1 °F 69.1 °F 93% 29.95 in 3.0 mi Calm Calm - 0.08 in Rain Light Rain
7:20 PM 71.1 °F 69.1 °F 93% 29.95 in 1.8 mi Calm Calm - 0.12 in Rain Heavy Rain
7:29 PM 71.1 °F 70.0 °F 96% 29.96 in 4.0 mi SW 3.5 mph - 0.12 in Rain Light Rain
7:44 PM 70.0 °F 68.0 °F 93% 29.95 in 10.0 mi SW 3.5 mph - 0.12 in   Overcast
7:53 PM 70.0 °F 68.0 °F 93% 29.91 in 10.0 mi Variable 3.5 mph - 0.12 in   Overcast
8:53 PM 68.0 °F 66.9 °F 96% 29.92 in 9.0 mi Calm Calm - N/A   Overcast
9:53 PM 66.9 °F 66.0 °F 97% 29.94 in 9.0 mi Calm Calm - N/A   Clear
10:19 PM 66.9 °F 66.0 °F 97% 29.98 in 8.0 mi Calm Calm - N/A   Scattered Clouds
10:28 PM 66.9 °F 66.0 °F 97% 29.97 in 3.0 mi SW 3.5 mph - N/A   Mostly Cloudy
10:34 PM 66.9 °F 66.0 °F 97% 29.97 in 1.8 mi Variable 3.5 mph - N/A   Mostly Cloudy
10:46 PM 66.9 °F 66.9 °F 100% 29.97 in 0.5 mi Calm Calm - N/A Fog Fog
10:53 PM 66.9 °F 66.9 °F 100% 29.93 in 0.5 mi Calm Calm - N/A Fog Fog
11:01 PM 66.9 °F 66.9 °F 100% 29.97 in 0.2 mi Calm Calm - N/A Fog Fog
11:21 PM 66.9 °F 66.9 °F 100% 29.97 in 0.5 mi WSW 3.5 mph - N/A Fog Fog
11:38 PM 66.0 °F 66.0 °F 100% 29.97 in 2.0 mi Variable 3.5 mph - N/A   Mostly Cloudy
11:44 PM 66.0 °F 66.0 °F 100% 29.97 in 8.0 mi SW 3.5 mph - N/A   Scattered Clouds
11:51 PM 66.2 °F 66.2 °F 100% 29.97 in 2.0 mi WSW 4.6 mph - N/A   Mostly Cloudy
11:53 PM 66.0 °F 66.0 °F 100% 29.93 in 1.0 mi WSW 4.6 mph - N/A   Mist